GEFSCGP_850_meantemp_096.txt.gz
Temperature
22 24 24 24 24 24 24 24 24 24 25 24 24 23 23 22 21 21 20 19 18 17 16 15 15 16 16 16 16 16 16 17 17 16 16 16 16 16 16 15 15 16 16 16
23 24 24 24 24 23 23 23 24 24 24 23 23 22 22 21 20 19 19 18 17 16 15 14 14 15 15 15 15 15 16 16 16 16 16 16 15 15 15 15 15 15 15 15
23 24 24 23 23 23 23 24 24 23 23 23 23 22 21 21 20 19 18 17 16 16 15 14 14 14 14 14 15 15 15 15 15 15 15 15 15 15 15 14 14 15 15 15
24 24 23 23 23 23 23 24 23 23 23 23 23 22 22 21 20 19 18 16 16 15 14 13 13 13 14 14 14 14 15 15 15 15 15 14 14 14 14 14 14 14 14 14
24 24 23 23 24 23 23 24 23 23 23 23 23 22 22 21 20 19 18 16 15 14 13 13 12 12 13 13 13 14 14 14 14 14 14 14 14 13 13 13 13 13 13 13
24 24 24 24 24 23 23 23 23 23 23 22 23 22 22 21 21 19 17 15 14 13 12 12 12 12 12 12 13 13 13 13 13 13 13 13 13 13 12 12 12 12 12 12
23 24 24 24 23 23 23 22 22 22 22 22 23 22 21 21 20 19 17 15 13 12 12 12 12 11 11 12 12 12 12 13 13 13 13 12 12 12 12 12 11 11 11 11
23 23 24 24 23 23 23 22 21 21 21 22 22 22 21 19 18 17 15 14 12 12 11 11 11 11 11 11 11 11 11 12 12 12 11 11 11 11 11 10 10 10 10 10
23 23 23 23 23 23 23 23 23 22 22 21 22 21 19 18 17 16 14 13 12 11 10 10 10 10 10 10 10 11 11 11 11 11 11 10 10 10 10 10 9 9 9 9
23 22 23 23 23 23 23 23 22 21 20 20 21 21 21 18 17 15 14 13 11 10 9 9 9 9 9 9 9 10 10 10 10 10 10 9 9 9 9 9 8 8 8 8
23 21 22 23 22 23 22 22 21 22 21 20 20 20 19 18 17 15 14 12 10 9 9 9 9 9 9 9 9 9 9 9 9 9 8 8 8 8 8 8 7 7 7 7
22 22 22 22 23 22 22 22 21 20 20 21 20 19 18 17 16 15 13 11 9 9 8 8 8 8 8 8 8 8 8 8 8 8 7 7 7 7 7 7 6 6 6 6
21 21 20 21 21 21 21 22 21 21 21 20 20 19 16 16 14 13 11 10 9 8 8 8 7 7 7 7 7 7 7 7 7 7 6 6 6 6 6 6 5 5 6 6
21 21 21 20 21 21 21 21 21 21 20 20 20 18 16 15 13 11 10 9 8 8 7 7 7 7 7 7 6 6 6 6 6 6 6 5 5 5 5 5 5 5 5 5
21 21 21 21 21 21 21 21 21 20 20 20 19 19 16 14 13 11 9 8 8 7 7 7 7 6 6 6 6 6 6 6 6 6 5 5 5 5 5 5 5 5 5 4
20 20 20 20 21 21 20 20 20 20 20 19 19 17 16 13 12 10 9 8 8 7 7 7 6 6 6 6 6 6 5 5 5 5 5 5 5 5 5 5 4 4 4 4
21 20 20 20 21 20 20 20 20 20 19 19 18 17 14 13 11 10 9 8 8 7 7 6 6 6 6 6 6 5 5 5 5 5 5 5 5 5 5 5 4 4 4 4
20 20 20 20 20 19 19 20 20 19 18 18 17 15 14 12 10 9 9 8 7 7 6 6 6 6 6 5 5 5 5 5 5 5 5 5 5 5 5 5 4 4 4 4
19 19 20 20 20 20 19 19 19 19 17 17 16 14 12 10 9 8 8 8 7 7 7 6 6 6 5 5 5 5 5 5 5 5 5 5 5 5 5 5 4 4 4 4
19 19 20 20 19 19 19 19 19 19 17 16 15 13 11 11 12 9 7 7 7 7 6 6 6 6 5 5 5 5 5 5 5 5 5 5 5 5 5 4 4 4 4 4
19 19 19 20 19 20 19 18 18 18 17 15 14 12 12 13 12 9 7 7 7 6 6 6 6 5 5 5 5 5 5 5 5 5 5 5 5 5 5 4 4 4 4 4
20 20 20 20 19 19 17 18 18 17 15 14 13 12 11 10 9 7 7 6 6 6 6 6 6 5 5 5 5 5 5 5 5 5 5 5 5 5 5 4 4 4 4 4
21 21 21 20 19 16 15 16 14 14 14 13 12 11 10 9 8 7 6 6 6 6 6 6 6 5 5 5 5 5 5 5 5 5 5 5 5 5 5 5 5 5 5 5
20 19 19 19 17 15 14 14 13 13 13 12 11 10 9 8 7 7 6 6 6 6 6 6 6 6 5 5 5 5 5 5 5 5 5 5 5 5 5 5 5 5 5 5
20 19 19 18 16 15 14 13 13 12 11 11 10 9 9 8 7 7 6 6 6 6 6 6 6 6 6 6 5 5 5 5 5 5 5 5 5 5 5 5 5 5 4 4
20 20 20 20 17 17 14 12 12 11 11 10 9 9 8 8 7 7 6 6 6 6 6 6 6 6 6 6 6 5 5 5 5 5 6 6 6 6 6 5 5 5 4 4

GEFSCGP_850_meantemp_102.txt.gz
Temperature
26 25 26 27 28 28 28 28 27 28 29 28 27 27 27 26 25 25 23 22 21 20 19 18 17 17 17 17 17 17 17 17 17 17 17 16 16 16 16 16 16 16 16 16
26 26 27 28 28 28 27 27 27 28 28 28 27 26 26 26 25 24 22 21 20 19 18 17 16 16 16 16 16 16 16 16 16 16 16 16 16 16 16 15 15 16 16 15
26 27 28 28 27 27 27 27 27 27 28 28 26 25 25 25 24 22 21 20 19 18 17 16 16 15 15 15 15 15 15 15 15 16 16 16 15 15 15 15 15 15 15 15
27 28 28 27 27 27 26 28 27 27 26 25 26 24 24 23 22 22 21 19 18 17 16 16 15 14 14 14 14 14 15 15 15 15 15 15 15 15 14 14 14 14 14 14
27 27 27 26 27 27 27 28 27 26 25 24 25 23 23 23 21 20 20 19 18 17 16 15 14 14 13 13 14 14 14 14 14 15 15 14 14 14 13 13 13 13 13 13
27 28 28 27 28 28 27 27 26 26 24 23 22 22 22 22 21 19 18 18 17 16 15 14 13 13 13 13 13 13 13 13 13 14 14 14 13 13 13 13 13 12 12 12
26 27 28 28 27 27 27 25 23 22 21 21 21 21 20 21 22 20 18 16 15 15 14 13 12 12 12 12 12 12 12 12 12 12 13 13 12 12 12 12 12 12 12 11
24 24 26 27 26 26 26 25 23 21 22 21 20 19 19 20 20 18 17 15 14 13 13 12 11 11 11 11 11 11 11 11 11 11 11 12 11 11 11 11 11 11 11 11
24 24 26 27 27 27 25 25 25 23 23 22 21 20 19 19 18 17 15 14 13 12 12 11 10 10 10 10 10 10 10 11 11 11 11 11 11 10 10 10 10 10 10 9
25 24 25 26 27 27 26 25 24 23 21 20 21 20 18 17 17 16 15 13 12 11 11 10 10 10 9 9 9 10 10 10 10 10 10 10 10 10 9 9 9 9 9 9
26 24 24 25 25 25 25 25 24 23 23 21 19 19 19 18 17 16 15 13 12 11 10 10 9 9 9 9 9 9 9 9 9 9 9 9 8 8 8 8 8 8 8 8
25 24 23 24 24 24 25 25 24 22 21 22 20 18 19 18 17 15 14 12 11 10 10 9 9 9 8 8 8 8 8 8 8 8 8 8 8 7 7 7 7 7 7 7
24 23 21 21 21 21 22 23 24 24 22 21 20 18 18 17 15 14 12 11 10 9 9 9 8 8 8 8 8 8 8 8 8 7 7 7 7 7 7 6 6 6 7 6
24 23 22 20 19 19 20 22 24 23 22 21 20 18 16 16 15 13 12 10 9 9 8 8 8 8 7 7 7 7 7 7 7 7 7 7 6 6 6 6 6 6 6 6
23 22 23 22 23 22 23 23 24 23 22 21 20 19 17 16 15 13 11 10 9 8 8 8 7 7 7 7 7 7 7 7 7 6 6 6 6 6 6 6 6 5 5 6
23 22 22 22 23 23 23 24 24 23 22 21 20 18 17 15 13 12 11 10 9 8 8 7 7 7 7 7 7 6 6 6 6 6 6 6 6 6 6 5 5 5 5 5
21 21 20 21 23 22 22 23 23 23 23 22 20 18 16 15 13 12 10 10 9 8 8 7 7 7 7 7 6 6 6 6 6 6 6 6 6 6 6 6 5 5 5 5
21 20 20 21 21 19 21 23 23 23 22 21 19 17 16 14 12 11 10 9 9 8 8 7 7 7 7 7 6 6 6 6 6 6 6 6 6 6 6 6 6 6 5 5
22 21 20 20 20 20 21 22 22 21 20 20 18 17 14 13 12 10 10 9 8 8 8 7 7 7 7 6 6 6 6 6 6 6 6 6 6 6 6 6 6 6 6 5
23 22 20 20 19 18 20 22 23 21 19 19 18 16 14 14 13 10 9 8 8 7 7 7 7 7 7 6 6 6 6 6 6 6 6 6 6 6 6 6 6 6 6 6
21 21 20 20 19 19 21 22 22 19 18 18 17 16 15 15 13 10 9 8 7 7 7 7 7 7 6 6 6 6 6 6 6 6 6 6 6 6 6 6 6 6 6 6
22 21 20 20 19 19 21 22 20 18 18 17 16 15 13 12 10 9 8 8 7 7 7 7 7 6 6 6 6 6 6 6 6 6 6 6 6 6 6 6 6 6 6 6
22 21 21 19 19 19 19 19 18 18 17 16 15 13 12 10 9 8 8 7 7 7 7 7 7 6 6 6 6 6 6 6 6 6 6 6 6 6 6 6 6 6 6 6
21 21 21 20 19 19 19 18 18 17 16 15 14 12 11 10 9 8 8 7 7 7 7 7 7 6 6 6 6 6 6 6 6 6 6 6 6 6 6 6 6 6 6 6
20 20 21 19 19 19 18 18 17 16 15 14 13 12 11 10 9 8 8 7 7 7 7 7 7 7 6 6 6 6 6 6 6 6 6 6 6 6 6 6 6 6 6 6
21 20 20 20 20 20 18 17 16 15 14 13 12 11 10 10 9 8 8 8 7 7 7 7 7 7 7 7 6 6 6 6 6 7 7 7 7 7 6 6 6 6 6 6

GEFSCGP_850_meantemp_108.txt.gz
Temperature
22 18 18 18 18 19 20 21 21 22 23 21 20 19 19 19 18 17 17 17 17 16 16 16 16 16 16 16 16 16 16 16 16 16 16 16 16 16 16 16 16 16 16 16
18 18 20 20 21 21 21 21 21 21 23 22 20 19 18 18 17 17 16 16 16 15 15 15 15 16 16 16 16 16 16 16 16 16 16 16 16 15 15 15 15 16 15 15
19 20 22 22 22 22 22 22 22 22 22 21 20 18 17 17 17 16 16 15 15 15 14 14 14 15 15 15 15 15 15 16 16 16 16 15 15 15 14 14 15 15 15 15
19 21 23 23 23 23 21 23 23 22 20 18 19 17 16 16 15 15 14 14 14 14 14 14 14 14 14 14 14 14 15 15 15 15 15 15 15 15 14 14 14 14 14 14
20 22 22 23 23 24 23 23 22 21 19 17 17 16 16 15 15 14 14 13 13 13 13 13 13 13 13 13 13 14 14 14 14 14 14 15 14 14 14 14 14 14 13 14
21 22 23 23 24 24 23 21 19 17 16 17 17 16 15 14 15 14 13 12 12 12 12 12 12 12 12 12 13 13 13 13 13 13 13 14 14 13 13 13 13 13 13 13
20 22 22 23 23 22 21 18 17 17 15 16 16 16 15 14 15 14 13 12 12 12 12 12 12 12 11 12 12 12 12 12 12 13 12 12 12 12 12 12 12 12 12 12
19 20 22 23 22 21 21 19 17 17 16 15 16 15 14 14 14 13 12 11 11 11 11 11 11 11 11 11 11 11 11 11 11 11 11 11 11 11 11 11 11 11 11 11
19 20 22 23 23 22 21 19 17 16 16 15 15 15 14 14 13 12 11 11 10 10 10 10 10 10 10 10 10 10 10 10 10 10 10 10 10 10 10 10 10 10 10 10
19 20 21 22 21 21 20 19 16 16 16 16 15 15 14 13 13 12 11 10 10 10 9 9 9 9 9 9 9 9 10 10 10 10 10 10 10 10 10 9 9 9 9 9
19 18 19 19 19 19 19 19 16 15 15 15 15 14 15 13 13 12 11 10 9 9 9 9 8 8 8 8 9 9 9 9 9 9 9 9 9 9 9 9 8 8 8 8
19 16 17 18 18 19 19 18 16 16 15 14 14 14 14 13 12 11 10 9 9 9 9 8 8 8 8 8 8 8 8 8 8 8 8 8 8 8 8 8 8 8 7 8
18 16 16 17 17 18 18 18 17 15 14 14 14 14 13 12 11 11 10 9 9 8 8 8 8 8 7 7 7 7 7 7 7 7 7 7 7 7 7 7 7 7 7 7
18 16 16 16 16 17 17 18 18 16 14 14 15 14 12 11 11 10 9 8 8 8 8 8 8 7 7 7 7 7 7 7 7 7 7 7 7 7 6 6 6 6 6 6
16 16 17 17 18 18 18 18 18 17 16 15 15 14 13 12 11 10 9 8 8 7 7 7 7 7 7 7 7 7 7 7 7 7 6 6 6 6 6 6 6 6 6 6
14 16 17 17 18 18 18 19 19 18 17 16 15 14 12 11 10 9 8 8 8 7 7 7 7 7 7 7 6 6 6 6 6 6 6 6 6 6 6 6 5 5 5 5
14 15 15 15 17 17 17 17 18 17 17 15 14 13 11 10 10 9 8 8 8 7 7 7 7 7 7 6 6 6 6 6 6 6 6 6 6 5 5 5 5 5 5 5
14 14 13 14 16 16 16 17 18 16 15 15 13 12 11 10 9 9 9 8 8 8 7 7 7 7 7 6 6 6 6 6 6 6 6 6 6 5 5 5 5 5 5 5
14 14 13 13 15 16 17 17 17 15 14 13 12 11 10 9 9 8 8 9 8 8 8 7 7 7 7 6 6 6 6 6 6 6 6 6 6 5 5 5 5 5 5 5
14 13 13 14 15 15 16 17 17 15 13 13 12 11 10 10 9 8 8 8 8 8 7 7 7 7 6 6 6 6 6 6 6 6 6 6 6 6 5 5 5 5 5 5
14 14 14 14 14 15 16 17 17 16 14 13 12 11 10 10 10 9 8 8 8 7 7 7 7 7 6 6 6 6 6 6 6 6 6 6 6 6 5 5 5 5 5 5
13 13 14 13 14 14 16 16 15 14 14 13 12 11 11 10 9 8 8 8 7 7 7 7 7 6 6 6 6 6 6 6 6 6 6 6 6 6 6 5 5 5 6 5
13 13 12 13 13 14 15 15 15 15 13 12 12 11 11 9 8 8 8 7 7 7 7 7 7 6 6 6 6 6 6 6 6 6 6 6 6 6 6 6 6 6 6 6
13 13 12 13 13 14 14 15 14 15 14 13 13 12 11 9 8 8 7 7 7 7 7 7 7 6 6 6 6 6 6 6 6 6 6 6 6 6 6 6 6 6 6 6
13 13 13 12 13 13 13 13 13 13 13 12 12 11 11 9 8 8 7 7 7 7 7 7 7 6 6 6 6 6 6 6 6 6 6 6 6 6 6 6 6 6 6 6
12 13 12 12 13 12 12 13 13 13 12 11 11 10 9 9 8 8 7 7 7 7 7 7 6 6 6 6 6 6 6 6 6 6 6 6 6 6 6 6 6 6 6 6

GEFSCGP_850_meantemp_114.txt.gz
Temperature
18 16 16 17 17 18 19 19 18 18 18 17 16 15 15 15 14 14 14 13 14 14 14 14 15 15 15 16 16 16 15 15 16 16 16 16 16 15 15 15 15 15 15 15
16 17 18 18 17 18 18 18 17 17 18 17 16 15 15 15 14 14 13 13 13 13 14 14 14 15 15 15 15 15 15 15 15 15 15 15 15 15 15 15 15 15 15 15
18 18 19 19 19 18 18 18 18 18 17 16 16 16 15 14 14 13 13 13 13 13 13 13 14 14 14 14 14 14 14 14 14 15 15 15 14 14 14 14 14 14 14 14
18 18 19 19 19 19 18 19 18 18 16 15 16 15 15 14 14 13 13 12 12 12 12 12 13 13 13 13 13 14 14 14 14 14 14 14 14 14 14 14 14 14 14 14
19 20 20 20 20 19 19 19 18 17 16 15 15 15 14 14 14 14 13 12 12 12 12 12 12 12 12 12 13 13 13 13 13 13 14 13 13 13 13 13 13 13 13 13
19 19 20 20 20 20 19 17 16 14 14 15 16 15 15 13 14 13 12 11 11 11 11 11 11 11 12 12 12 12 12 12 12 12 12 12 12 12 12 12 12 12 12 12
19 19 20 20 20 19 18 16 16 16 15 15 15 14 14 14 14 13 12 11 10 10 10 10 10 11 11 11 11 11 11 11 11 11 11 11 11 11 11 11 11 11 11 12
18 18 20 20 20 19 18 17 16 16 16 14 14 14 14 13 13 12 12 11 10 10 10 10 10 10 10 10 10 10 10 10 10 10 10 10 10 11 11 11 11 11 11 11
18 18 20 20 20 19 18 16 15 14 14 14 14 14 14 12 12 11 10 10 9 9 9 9 9 9 9 9 9 9 9 9 9 10 9 10 10 10 10 10 10 10 10 10
17 18 19 19 19 18 17 14 13 14 14 15 15 14 13 13 12 11 10 10 9 9 9 8 8 9 8 9 9 9 9 9 9 9 9 9 9 9 9 9 9 9 9 9
17 17 18 18 18 18 17 16 13 12 13 14 14 14 14 13 12 11 10 9 9 9 8 8 8 8 8 8 8 8 8 8 8 8 8 8 8 8 8 8 8 8 8 8
15 14 16 17 17 17 17 16 14 15 14 13 13 13 13 12 11 11 10 9 9 8 8 8 8 8 8 8 8 8 8 8 8 8 8 8 7 8 7 7 7 7 7 8
15 14 15 16 16 16 17 16 14 12 12 11 13 14 12 11 10 10 9 9 8 8 8 8 8 7 7 7 7 7 7 7 7 7 7 7 7 7 7 7 7 7 7 7
15 13 14 16 16 16 16 16 14 13 13 12 13 14 13 11 10 9 9 8 8 8 8 7 7 7 7 7 7 7 7 7 7 7 7 7 6 6 6 6 6 6 6 6
14 14 15 15 16 16 16 16 15 14 14 14 14 13 13 11 10 9 8 8 8 7 7 7 7 7 7 7 6 6 6 6 6 6 6 6 6 6 6 6 6 6 6 6
12 14 15 15 16 16 16 16 16 15 15 14 14 13 12 11 10 9 8 8 7 7 7 7 7 7 6 6 6 6 6 6 6 6 6 6 5 5 5 5 5 5 5 5
12 13 13 14 14 16 15 16 16 16 15 14 14 13 10 10 9 9 8 8 8 8 7 7 7 7 6 6 6 6 6 6 6 6 6 6 5 5 5 5 5 5 5 5
12 12 11 12 14 15 15 15 15 15 14 13 12 11 10 10 9 9 9 8 8 8 7 7 7 6 6 6 6 6 6 6 6 6 6 5 5 5 5 5 5 5 5 5
11 11 11 11 13 14 15 15 15 14 14 12 11 10 9 9 8 8 8 9 9 8 8 7 7 6 6 6 6 6 6 6 6 6 5 5 5 5 5 5 5 5 5 5
11 11 11 12 14 14 15 15 15 14 14 12 10 9 9 9 9 8 8 8 8 8 7 7 7 6 6 6 6 6 6 6 6 6 5 5 5 5 5 5 5 5 5 5
11 11 11 12 13 13 14 14 15 15 14 12 10 9 9 9 9 9 8 8 8 7 7 7 7 6 6 6 6 6 6 6 6 5 5 5 5 5 5 5 5 5 5 5
11 11 11 11 12 13 14 14 13 13 12 11 10 10 9 9 9 9 8 8 7 7 7 7 6 6 6 6 6 6 6 6 5 5 5 5 5 5 5 5 5 5 5 5
11 11 10 11 11 12 12 12 13 13 12 11 11 10 10 9 9 8 7 7 7 7 7 7 6 6 6 6 6 6 6 6 5 5 5 5 5 5 5 5 5 5 5 5
10 10 10 10 11 12 12 12 13 13 13 12 11 11 10 9 8 8 7 7 7 7 7 7 6 6 6 6 6 6 6 6 6 6 5 5 5 5 5 5 5 5 5 5
10 10 10 10 11 11 12 12 13 13 13 12 11 11 10 10 8 8 7 7 7 7 7 7 6 6 6 6 6 6 6 6 6 6 6 5 5 5 5 5 5 5 5 5
9 10 10 11 11 11 12 12 12 12 12 12 11 10 9 9 9 8 8 7 7 7 7 6 6 6 6 6 6 6 6 6 6 6 6 6 6 6 6 6 5 5 5 5